Montross, Virginia, United States (22520)
Lat: 38.09N, Lon: 76.83W
Wx Zone: VAZ075
Local Info
Past Weather Observations for Saturday, February 6, 2016

NOTE: This archive is for the closest National Weather Service station to Montross. Information may differ from the station used for current weather conditions.

Click here for Long-term Archive

Time Weather Temperature Dewpoint Humidity Pressure Winds Precip Visibility
23:52
Clear
25°F / -4°C 21°F / -6°C 86% 30.27 in
(1025 mb)
Calm - 10SM
22:52
Clear
27°F / -3°C 21°F / -6°C 80% 30.3 in
(1026 mb)
SSE 3.5 mph
(SSE 6 kph)
- 10SM
21:52
Clear
28°F / -2°C 23°F / -5°C 80% 30.3 in
(1026 mb)
SW 4.6 mph
(SW 7 kph)
- 10SM
20:52
Clear
34°F / 1°C 21°F / -6°C 60% 30.33 in
(1027 mb)
S 5.8 mph
(S 9 kph)
- 10SM
19:52
Clear
34°F / 1°C 25°F / -4°C 70% 30.33 in
(1027 mb)
S 5.8 mph
(S 9 kph)
- 10SM
18:52
Clear
36°F / 2°C 23°F / -5°C 60% 30.33 in
(1027 mb)
SSE 4.6 mph
(SSE 7 kph)
- 10SM
17:52
Mostly Cloudy
37°F / 3°C 21°F / -6°C 52% 30.33 in
(1027 mb)
SSE 4.6 mph
(SSE 7 kph)
- 10SM
16:52
Mostly Cloudy
39°F / 4°C 25°F / -4°C 56% 30.33 in
(1027 mb)
SSE 8.1 mph
(SSE 13 kph)
- 10SM
15:52
Mostly Cloudy
39°F / 4°C 25°F / -4°C 56% 30.33 in
(1027 mb)
SE 9.2 mph
(SE 15 kph)
- 10SM
14:52
Mostly Cloudy
39°F / 4°C 25°F / -4°C 56% 30.33 in
(1027 mb)
SE 12.7 mph
(SE 20 kph)
- 10SM
13:52
Mostly Cloudy
41°F / 5°C 27°F / -3°C 57% 30.36 in
(1028 mb)
SE 11.5 mph
(SE 19 kph)
- 10SM
12:52
Mostly Cloudy
41°F / 5°C 25°F / -4°C 53% 30.39 in
(1029 mb)
SE 9.2 mph
(SE 15 kph)
- 10SM
11:52
Mostly Cloudy
39°F / 4°C 25°F / -4°C 56% 30.45 in
(1031 mb)
SE 8.1 mph
(SE 13 kph)
- 10SM
10:52
Mostly Cloudy
39°F / 4°C 21°F / -6°C 48% 30.48 in
(1032 mb)
SE 5.8 mph
(SE 9 kph)
- 10SM
09:52
Mostly Cloudy
39°F / 4°C 23°F / -5°C 52% 30.48 in
(1032 mb)
Calm - 10SM
08:52
Mostly Cloudy
32°F / 0°C 25°F / -4°C 75% 30.48 in
(1032 mb)
SW 3.5 mph
(SW 6 kph)
- 10SM
07:52
Mostly Cloudy
27°F / -3°C 23°F / -5°C 86% 30.48 in
(1032 mb)
SSW 3.5 mph
(SSW 6 kph)
- 10SM
07:05
Mostly Cloudy
25°F / -4°C 21°F / -6°C 86% 30.45 in
(1031 mb)
SSW 4.6 mph
(SSW 7 kph)
- 10SM
06:52
Clear
25°F / -4°C 21°F / -6°C 86% 30.45 in
(1031 mb)
SSW 3.5 mph
(SSW 6 kph)
- 10SM
05:52
Clear
25°F / -4°C 21°F / -6°C 86% 30.45 in
(1031 mb)
Calm - 10SM
04:52
Clear
28°F / -2°C 19°F / -7°C 69% 30.42 in
(1030 mb)
SSW 3.5 mph
(SSW 6 kph)
- 10SM
03:52
Clear
28°F / -2°C 19°F / -7°C 69% 30.42 in
(1030 mb)
WNW 4.6 mph
(WNW 7 kph)
- 10SM
02:52
Clear
27°F / -3°C 19°F / -7°C 74% 30.42 in
(1030 mb)
NW 5.8 mph
(NW 9 kph)
- 10SM
01:52
Clear
27°F / -3°C 21°F / -6°C 80% 30.42 in
(1030 mb)
NW 5.8 mph
(NW 9 kph)
- 10SM
00:52
Clear
32°F / 0°C 19°F / -7°C 60% 30.39 in
(1029 mb)
NNW 4.6 mph
(NNW 7 kph)
- 10SM
Time Weather Temperature Dewpoint Humidity Pressure Winds Precip Visibility


Weather for websites

WeatherForYou.com, LLC is not responsible for any damages or problems caused by this service. Current weather conditions are obtained from the closest station including government and personal stations which may have varying degrees of accuracy. Weather forecasts are derived from the NOAA NDFD. Like all things, this site belongs to Jesus Christ... He just trusts us to maintain it. If you have any questions or comments email webmaster@weatherforyou.com

Copyright © 2016, WeatherForYou.com LLC. All rights reserved.